Terminal Aerodrome Forecast
Issued by NWS

Home | Current Version | Previous Version | Text Only | Print | Product List | Glossary On
Versions: 1 2 3 4 5 6 7 8 9 10 11 12 13 14 15 16 17 18 19 20 21 22 23 24 25 26 27 28 29 30 31
000
FTUS42 KMHX 220546
TAFISO
TAF
KISO 220546Z 2206/2306 VRB03KT 3SM BR SCT003
      TEMPO 2206/2208 1SM BR
     FM220800 VRB03KT 1SM BR OVC005
      TEMPO 2208/2212 1/2SM FG OVC003
     FM221400 04004KT P6SM SCT025 BKN250
     AMD LTD TO CLD VIS AND WIND=

USA.gov is the U.S. government's official web portal to all federal, state and local government web resources and services.